Regional Weather Roundup
Issued by NWS

Home | Current Version | Previous Version | Graphics & Text | Print | Product List | Glossary On
Versions: 1 2 3 4 5 6 7 8 9 10 11 12 13 14 15 16 17 18 19 20 21 22 23 24 25 26 27 28 29 30 31 32 33 34 35 36 37 38 39 40 41 42 43 44 45 46 47 48 49 50
000
ASUS45 KCYS 010410
RWRWY

WYOMING REGIONAL WEATHER ROUNDUP
NATIONAL WEATHER SERVICE CHEYENNE WY
900 PM MST SAT FEB 28 2015

NOTE:  "FAIR" INDICATES FEW OR NO CLOUDS BELOW 12,000 FEET
WITH NO SIGNIFICANT WEATHER AND/OR OBSTRUCTIONS TO VISIBILITY.

WYZ001-010500-
YELLOWSTONE NATIONAL PARK

CITY           SKY/WX    TMP DP  RH WIND       PRES   REMARKS
LK YELLOWSTONE   N/A      6  -1  73 NE3       29.92R
W YELLOWSTONE  NOT AVBL

$$
WYZ002>013-054>058-071-098>099-010500-
NORTHERN WYOMING

CITY           SKY/WX    TMP DP  RH WIND       PRES   REMARKS
JACKSON        FAIR       9   5  85 N9        29.89R WCI  -5
CODY           CLOUDY    16   9  73 NW3       30.07R
GREYBULL       CLOUDY    22   9  57 NW8       30.11R WCI  12
WORLAND        CLOUDY    24  14  65 S5        30.09R WCI  18
SHERIDAN       FAIR      10   4  76 CALM      30.14R
BUFFALO        CLOUDY    11   6  81 W6        30.08R WCI   1
GILLETTE       CLOUDY    15   9  76 N6        30.11R WCI   6
HULETT         CLOUDY    16  10  79 W3        30.12S
NEWCASTLE      FAIR      18   9  68 NW8       30.11R WCI   7

$$
WYZ014>020-022>026-101>103-010500-
CENTRAL WYOMING

CITY           SKY/WX    TMP DP  RH WIND       PRES   REMARKS
BIG PINEY      FAIR      18  11  74 S7        29.89R WCI   9
PINEDALE       MOCLDY    14  10  85 CALM      29.89R
DUBOIS         FLURRIES  12   9  85 SE5       29.92R WCI   4
LANDER         CLOUDY    17   8  67 W7        30.01R WCI   8
RIVERTON       CLOUDY    18  10  71 E3        30.03R
CASPER         CLOUDY    18  10  71 N12       30.03R WCI   5
DOUGLAS        CLOUDY    20  12  71 NE7       30.05R WCI  11

$$
WYZ021-027>030-104>119-010500-
SOUTHERN WYOMING

CITY           SKY/WX    TMP DP  RH WIND       PRES   REMARKS
EVANSTON       CLOUDY    24  22  91 E8        29.84R WCI  15
FORT BRIDGER   LGT SNOW  23  23  99 E7        29.88R WCI  15
ROCK SPRINGS   LGT SNOW  13   9  84 NE17      29.91R FOG     WCI  -4
DIXON          MIX PCPN  30  23  75 NE6       29.86R WCI  24
RAWLINS        CLOUDY    15   7  70 NE15      29.90R WCI   0
SARATOGA       CLOUDY    18  12  79 NW12      29.87R WCI   5
LARAMIE        CLOUDY    15   8  73 SE17      29.87R WCI  -1
CHEYENNE       CLOUDY    18  11  74 SE6       29.95R WCI  10
TORRINGTON     CLOUDY    23  12  62 NE7       30.06R WCI  15
PINE BLUFFS    CLOUDY    21  16  79 CALM      30.01S

$$



USA.gov is the U.S. government's official web portal to all federal, state and local government web resources and services.